STARLINK-38150, 100167

Orbit data source: Space-Track

STARLINK-38150, 100167 is a payload satellite owned by SpaceX/Seattle (US) in SSO that was launched on Sat, 25 Jul 2026 UTC launched from the Air Force Western Test Range (AFWTR). Payload-class satellites include a variety of spacecraft equipped with specific instruments for various scientific and technological missions. These include communications satellites like Starlink; space stations such as the ISS; scientific satellites like the Hubble; Earth observation satellites from companies like Planet Labs, Umbra, and HawkEye 360; GPS; miniature CubeSats for education and research; and military/defense satellites.

Not visible in the next 10 days
Identifier
100167, 2026-171V
Orbit
SSO
Country
Flag of USUS
Related business
Manufacturer
SpaceX/Seattle
Mission
Operational spacecraft
Bus & Motor
STARLINK V2MO, Unknown motor
Mass
575 kg wet, ~530 kg dry
Launch date (UTC)
2026-07-25 (2 weeks ago)
Launch vehicle
Unknown
Launch site
Air Force Western Test Range (AFWTR)
Object type
Payload
Rocket body
Debris
Shape & HBR
BOX + PAN, 17.7 m
Radar Cross Section
RCS unknown

Expand to show TLE details & history
Last TLE update: 1 day ago

TLE from 1 day ago
0 STARLINK-38150
1 A0167U 26171V   26221.04657289  .00322616  00000-0  16115-2 0  9991
2 A0167  97.2835 252.6276 0001724 128.0191 232.1233 15.80978057  2295
Epoch: 2026-08-09T01:07Z
TLE epoch observation values (Epoch: 2026-08-09T01:07:03.897Z)
Latitude
-0.00006°
Longitude
-81.68782°
Altitude
331.56 km
Speed
7.709 km/s
True Right ascension
16h 50m 30s
True Declination
0° 00' 00"
Sunlit
Object was in full shadow at epoch
Visualization orbit readout
Latitude
Unknown
Longitude
Unknown
Altitude
Unknown
Speed
Unknown
Apparent Right ascension
Unknown
Apparent Declination
Unknown
Sunlit
N/A
Visualization observer readout
Local Sidereal Time
15:33:06
Azimuth
Unknown
Elevation
Unknown
Doppler factor
Unknown
Orbital elements
Apogee altitude
325.709 km
Perigee altitude
323.398 km
Semi-major axis
6,702.69 km
Eccentricity
0.00017
Inclination
97.2835°
RAAN
252.6276°
Arg. of periapsis
128.0191°
True anomaly
232.10771°
Mean anomaly
232.1233°
Eccentric anomaly
232.1155°
Mean motion
3.95521 °/min
Orbital period
91.02 mins
BSTAR
0.0016115
Loading maneuver chart data...
Computing Atmospheric mass density...
Loading historical data...
Loading historical data...
Loading historical data...
Loading historical data...
Loading historical data...
Loading historical data...
Loading historical data...

Documentation

Showing up to 5 results
|